Weather History for Paganella, Italy

Change the Weather History Date:

Wednesday, September 25, 2013

  Actual Average Record
Temperature  
Mean Temperature 46 °F -  
Max Temperature 50 °F 44 °F 53 °F (1997)
Min Temperature 43 °F 36 °F 28 °F (2004)
Degree Days  
Heating Degree Days 18    
Moisture  
Dew Point 42 °F    
Average Humidity 85    
Maximum Humidity 100    
Minimum Humidity 52    
Precipitation  
Precipitation 0.00 in 0.10 in - ()
Sea Level Pressure  
Sea Level Pressure 30.08 in    
Wind  
Wind Speed 5 mph ()    
Max Wind Speed 12 mph    
Max Gust Speed -    
Visibility 0.9 miles    
Events Fog    
Averages and records for this station are not official NWS values.
T = Trace of Precipitation, MM = Missing Value Source: Averaged Metar Reports

Daily Weather History Graph

Daily Weather History Graph

Search for Another Location

Airport:

Trip Planner

Search our weather history database for the weather conditions in past years. The results will help you decide how hot, cold, wet, or windy it might be!

Date:

Astronomy

Sep. 25, 2013 Rise Set
Actual Time 7:06 AM CEST 7:07 PM CEST
Civil Twilight 6:36 AM CEST 7:37 PM CEST
Nautical Twilight 6:01 AM CEST 8:12 PM CEST
Astronomical Twilight 5:25 AM CEST 8:48 PM CEST
Moon 10:42 PM CEST (9/25) 1:15 PM CEST (9/25)
Length of Visible Light 13h 00m
Length of Day
12h 01m
Waning Gibbous, 66% of the Moon is Illuminated
Sep 25
Waning Gibbous
Sep 27
Last Quarter
Oct 5
New
Oct 12
First Quarter
Oct 19
Full

Hourly Weather History & Observations

Time (CEST) Temp. Windchill Dew Point Humidity Pressure Visibility Wind Dir Wind Speed Gust Speed Precip Events Conditions
12:55 AM 46.4 °F 42.4 °F 46.4 °F 100% 30.12 in - NNE 8.1 mph - N/A   Clear
1:55 AM 44.6 °F - 44.6 °F 100% 30.12 in 0.0 mi Variable 2.3 mph - N/A Fog Fog
2:00 AM 45 °F - 45 °F 100%  in 0 mi 2.3 mph - - Fog Heavy Fog
2:55 AM 44.6 °F 42.2 °F 44.6 °F 100% 30.12 in 0.0 mi NNE 4.6 mph - N/A Fog Fog
3:55 AM 46.4 °F 42.9 °F 35.6 °F 66% 30.09 in - NNE 6.9 mph - N/A   Clear
4:55 AM 48.2 °F - 35.6 °F 62% 30.09 in - North 4.6 mph - N/A   Clear
5:00 AM 47 °F - 35 °F 52%  in 12 mi North 4.6 mph - -   Partly Cloudy
5:55 AM 44.6 °F - 41.0 °F 87% 30.09 in - Calm Calm - N/A   Clear
6:55 AM 44.6 °F 41.4 °F 42.8 °F 93% 30.06 in 0.1 mi SW 5.8 mph - N/A Fog Fog
7:55 AM 44.6 °F 40.7 °F 44.6 °F 100% 30.06 in 0.0 mi South 6.9 mph - N/A Fog Fog
8:00 AM 44 °F - 44 °F 99%  in 0 mi South 6.9 mph - - Fog Heavy Fog
8:55 AM 44.6 °F 41.4 °F 44.6 °F 100% 30.06 in 0.0 mi SSW 5.8 mph - N/A Fog Fog
9:55 AM 46.4 °F 45.2 °F 42.8 °F 87% 30.06 in 1.2 mi North 3.5 mph - N/A   Mostly Cloudy
10:55 AM 46.4 °F 45.2 °F 44.6 °F 93% 30.06 in 0.4 mi Variable 3.5 mph - N/A Fog Fog
11:00 AM 46 °F - 45 °F 96%  in 0 mi 3.5 mph - - Fog Heavy Fog
11:55 AM 46.4 °F - 42.8 °F 87% 30.06 in 0.6 mi Variable 2.3 mph - N/A Fog Fog
12:55 PM 46.4 °F - 42.8 °F 87% 30.06 in 0.6 mi Calm Calm - N/A Fog Fog
1:55 PM 50.0 °F - 42.8 °F 76% 30.09 in 0.6 mi South 8.1 mph - N/A Fog Fog
2:00 PM 49 °F - 43 °F 73%  in 1 mi South 8.1 mph - - Fog Heavy Fog
2:55 PM 50.0 °F - 42.8 °F 76% 30.06 in 0.6 mi SSW 10.4 mph - N/A Fog Fog
3:55 PM 50.0 °F - 44.6 °F 82% 30.09 in 0.5 mi SW 11.5 mph - N/A Fog Fog
4:55 PM 50.0 °F - 44.6 °F 82% 30.06 in 0.6 mi SW 11.5 mph - N/A Fog Fog
5:00 PM 50 °F - 44 °F 73%  in 1 mi SW 11.5 mph - - Fog Heavy Fog
5:55 PM 48.2 °F - 42.8 °F 82% 30.06 in 0.6 mi SW 6.9 mph - N/A Fog Fog
6:55 PM 48.2 °F - 42.8 °F 82% 30.06 in 0.6 mi SW 6.9 mph - N/A Fog Fog
7:55 PM 44.6 °F 41.4 °F 41.0 °F 87% 30.06 in 0.4 mi SW 5.8 mph - N/A Fog Fog
8:00 PM 45 °F - 41 °F 80%  in 0 mi SW 5.8 mph - - Fog Heavy Fog
8:55 PM 44.6 °F 40.7 °F 41.0 °F 87% 30.06 in 0.5 mi SSW 6.9 mph - N/A Fog Fog
9:55 PM 44.6 °F 42.2 °F 41.0 °F 87% 30.06 in 0.6 mi SW 4.6 mph - N/A Fog Fog
10:55 PM 44.6 °F 43.1 °F 41.0 °F 87% 30.09 in 0.6 mi SW 3.5 mph - N/A Fog Fog
11:00 PM 45 °F - 41 °F 82%  in 1 mi SW 3.5 mph - - Fog Heavy Fog
11:55 PM 44.6 °F - 39.2 °F 81% 30.09 in - Calm Calm - N/A   Clear